CW0565 Weather Reports


time (UTC)temp
F
wind
direction
speed
knots
gust
knots
rain 1hr
in
rain 24hr
in
rain mn
in
humidity
%
barometer
mb
20260906214510 55 211 5.2 9.6 0.00 0.04 0.04 94 1016.5
20260906213010 55 161 4.3 7.0 0.00 0.04 0.04 95 1016.3
20260906211511 54 237 0.9 1.7 0.00 0.04 0.04 95 1016.3
20260906210010 54 238 0.0 3.5 0.00 0.04 0.04 94 1016.2
20260906204510 54 237 0.9 2.6 0.01 0.04 0.04 94 1016.3
20260906203009 54 237 0.0 0.9 0.02 0.04 0.04 93 1016.4
20260906201517 54 236 0.0 0.0 0.03 0.04 0.04 92 1016.7
20260906200010 55 237 0.0 2.6 0.03 0.04 0.04 92 1017.1
20260906194509 54 237 0.0 0.0 0.03 0.03 0.03 91 1017.2
20260906193010 54 237 0.0 0.0 0.02 0.02 0.02 90 1017.4
20260906191509 54 238 0.0 0.9 0.01 0.01 0.01 89 1017.4
20260906190010 55 236 0.0 1.7 0.01 0.01 0.01 88 1017.5
20260906184509 55 237 0.0 0.9 0.00 0.00 0.00 87 1017.7
20260906183013 55 237 0.0 1.7 0.00 0.00 0.00 87 1017.8
20260906181525 55 237 0.0 1.7 0.00 0.00 0.00 86 1018.0
20260906180009 55 237 0.0 0.0 0.00 0.00 0.00 85 1018.0
20260906174508 55 237 0.0 1.7 0.00 0.00 0.00 85 1017.9
20260906173009 55 237 0.0 0.9 0.00 0.00 0.00 85 1018.2
20260906171509 55 236 0.0 2.6 0.00 0.00 0.00 84 1018.3
20260906170010 55 237 1.7 3.5 0.00 0.00 0.00 83 1018.5
20260906164518 56 237 2.6 4.3 0.00 0.00 0.00 80 1018.7
20260906163014 56 236 3.5 7.8 0.00 0.00 0.00 76 1018.9
20260906161509 58 219 4.3 8.7 0.00 0.00 0.00 68 1018.9
20260906160010 59 195 1.7 7.0 0.00 0.00 0.00 66 1018.9
20260906154509 59 248 2.6 7.0 0.00 0.00 0.00 64 1018.9
20260906153010 59 244 5.2 7.8 0.00 0.00 0.00 63 1018.9
20260906151509 59 246 5.2 13.0 0.00 0.00 0.00 62 1019.0
20260906150015 60 264 7.8 11.3 0.00 0.00 0.00 58 1019.0
20260906144509 60 231 3.5 15.6 0.00 0.00 0.00 55 1018.9
20260906143009 61 234 7.8 14.8 0.00 0.00 0.00 56 1018.9
20260906141509 61 248 11.3 18.2 0.00 0.00 0.00 54 1019.1
20260906140017 61 271 7.8 13.0 0.00 0.00 0.00 54 1019.0
20260906134510 61 221 6.1 14.8 0.00 0.00 0.00 52 1019.0
20260906133009 60 240 6.1 16.5 0.00 0.00 0.00 52 1019.0
20260906131510 61 215 5.2 13.9 0.00 0.00 0.00 52 1019.1
20260906130015 61 335 4.3 16.5 0.00 0.00 0.00 50 1019.2
20260906124509 62 241 7.8 15.6 0.00 0.00 0.00 50 1019.3
20260906123027 61 287 6.1 14.8 0.00 0.00 0.00 49 1019.1
20260906121509 61 281 7.8 16.5 0.00 0.00 0.00 50 1019.0
20260906120009 62 268 7.8 13.0 0.00 0.00 0.00 52 1019.1
20260906114511 63 279 6.1 10.4 0.00 0.00 0.00 51 1019.0
20260906113012 61 248 4.3 13.0 0.00 0.00 0.00 54 1019.0
20260906111509 61 219 7.0 15.6 0.00 0.00 0.00 54 1018.9
20260906110009 61 303 5.2 13.0 0.00 0.00 0.00 54 1019.1
20260906104510 61 290 9.6 15.6 0.00 0.00 0.00 54 1019.0
20260906103011 61 254 7.8 17.4 0.00 0.00 0.00 54 1018.9
20260906101510 62 275 7.0 11.3 0.00 0.00 0.00 54 1018.8
20260906100011 60 225 3.5 13.0 0.00 0.00 0.00 56 1018.8
20260906094510 60 300 2.6 10.4 0.00 0.00 0.00 58 1018.8
20260906093017 59 246 7.8 13.0 0.00 0.00 0.00 58 1018.6
20260906091502 59 285 12.2 17.4 0.00 0.00 0.00 57 1018.8
20260906090009 59 310 9.6 18.2 0.00 0.00 0.00 57 1018.6
20260906084510 59 255 7.0 14.8 0.00 0.00 0.00 57 1018.4
20260906083010 59 255 5.2 14.8 0.00 0.00 0.00 57 1018.3
20260906081512 59 277 7.8 13.9 0.00 0.00 0.00 57 1018.2
20260906080010 59 275 5.2 11.3 0.00 0.00 0.00 60 1017.9
20260906074510 58 247 5.2 10.4 0.00 0.00 0.00 64 1017.9
20260906073023 57 248 3.5 13.0 0.00 0.00 0.00 66 1017.7
20260906071509 56 217 3.5 6.1 0.00 0.00 0.00 72 1018.0
20260906070009 55 163 2.6 7.8 0.00 0.00 0.00 74 1017.9
20260906064509 53 163 0.9 5.2 0.00 0.00 0.00 78 1017.8
20260906063011 51 161 2.6 6.1 0.00 0.00 0.00 82 1017.9
20260906061510 49 161 5.2 9.6 0.00 0.00 0.00 84 1017.7
20260906060009 48 155 5.2 7.8 0.00 0.00 0.00 88 1017.6
20260906054512 47 171 0.0 1.7 0.00 0.00 0.00 88 1017.4
20260906053009 47 171 0.0 0.9 0.00 0.00 0.00 87 1017.4
20260906051515 47 171 0.0 4.3 0.00 0.00 0.00 86 1017.3
20260906050010 48 171 2.6 4.3 0.00 0.00 0.00 85 1017.4
20260906044510 48 171 2.6 4.3 0.00 0.00 0.00 84 1017.1
20260906043010 48 171 0.0 4.3 0.00 0.00 0.00 84 1016.8
20260906041510 48 182 3.5 5.2 0.00 0.00 0.00 83 1016.6
20260906040010 49 238 0.0 7.0 0.00 0.00 0.00 79 1016.5
20260906034512 49 21 0.0 2.6 0.00 0.00 0.00 83 1016.3
20260906033010 49 21 0.9 3.5 0.00 0.00 0.00 83 1016.2
20260906031511 49 21 1.7 3.5 0.00 0.00 0.00 83 1016.1
20260906030009 50 20 2.6 6.1 0.00 0.00 0.00 80 1015.9
20260906024509 51 18 0.0 1.7 0.00 0.00 0.00 78 1015.9
20260906023009 52 17 0.0 7.0 0.00 0.00 0.00 73 1015.5
20260906021510 52 35 1.7 7.8 0.00 0.00 0.00 72 1015.3
20260906020009 52 296 0.9 7.0 0.00 0.00 0.00 74 1015.4
20260906014510 51 306 1.7 4.3 0.00 0.00 0.00 78 1015.3
20260906013009 52 300 0.0 4.3 0.00 0.00 0.00 77 1015.2
20260906011510 53 5 3.5 7.8 0.00 0.00 0.00 70 1015.1
20260906010010 53 295 0.9 6.1 0.00 0.00 0.00 71 1015.0
20260906004510 53 315 2.6 10.4 0.00 0.00 0.00 70 1015.0
20260906003010 53 236 0.9 3.5 0.00 0.00 0.00 71 1015.0
20260906001511 53 292 0.9 4.3 0.00 0.00 0.00 71 1014.9
20260906000010 53 288 0.9 4.3 0.00 0.01 0.00 71 1014.4
20260905234508 54 288 2.6 6.1 0.00 0.01 0.00 71 1014.3
20260905233012 54 277 0.9 7.0 0.00 0.01 0.00 73 1014.1
20260905231513 54 288 1.7 7.0 0.00 0.01 0.00 73 1013.7
20260905230013 55 284 2.6 9.6 0.00 0.01 0.00 71 1013.4
20260905224509 55 286 2.6 7.0 0.00 0.01 0.00 71 1013.3
20260905223009 55 326 1.7 7.0 0.00 0.01 0.00 71 1013.0
20260905221513 55 290 4.3 8.7 0.00 0.01 0.00 71 1012.6
20260905220009 55 309 5.2 11.3 0.00 0.01 0.01 71 1012.4